User: anonymous   Login
Location: Unspecified
(0.0000°N, 0.0000°E)
Time: 22:42:14
(UTC+02:00)
Language:

Timation 2 Rocket - Orbit

View from above orbital plane
View from above orbital plane
View from above satellite
View from above satellite

Ground track
Ground track

The orbit data is extracted from the following two-line orbital elements,

1  4159U 69082AB  17294.90268692 -.00000056 +00000-0 -51388-5 0  9992
2  4159 069.9618 255.6542 0118585 291.8794 066.9723 13.72384163405029
Epoch (UTC): 21 October 2017 21:39:52
Eccentricity: 0.0118585
inclination: 69.9618°
perigee height: 903 km
apogee height: 1078 km
right ascension of ascending node: 255.6542°
argument of perigee: 291.8794°
revolutions per day: 13.72384163
mean anomaly at epoch: 66.9723°
orbit number at epoch: 40502

The dashed part of the orbit path shows where the satellite is in the earth's shadow,  

DLR